Location: �mondeville
(49.4591°N, 1.3431°W)
Time: 13:44:21
(UTC+00:00)

GP-B - Pass Details

Date: 22 October 2019
Orbit: 632 x 635 km, 89.8° (Epoch: 17 November)

Event Time Altitude Azimuth Distance (km) Brightness Sun altitude
Rises 05:02:56 0° 181° (S) 2,920 6.5 -15.9°
Reaches altitude 10° 05:05:09 10° 183° (S) 2,017 5.6 -15.6°
Maximum altitude 05:09:35 75° 270° (W) 662 3.0 -14.8°
Drops below altitude 10° 05:14:04 10° 356° (N) 2,032 5.7 -14.1°
Sets 05:16:18 0° 358° (N) 2,945 6.5 -13.8°
